Hourly Weather Roundup
Issued by NWS Central Illinois

Home | Current Version | Previous Version | Text Only | Print | Product List | Glossary On
Versions: 1 2 3 4 5 6 7 8 9 10 11 12 13 14 15 16 17 18 19 20 21 22 23 24 25 26 27 28 29 30 31 32 33 34 35 36 37 38 39 40 41 42 43 44 45 46 47 48 49 50
000
NZUS43 KILX 262210
HWRILX

Area Weather Roundup
National Weather Service Lincoln IL
500 PM CDT FRI MAY 26 2017

NOTE:  "FAIR" indicates few or no clouds below 12,000 feet, with
       no sigificant weather and/or obstructions to visibility.


CITY           SKY/WX    TMP DP  RH WIND       PRES   REMARKS
Bloomington    CLOUDY    69  65  86 N15       29.76S
Champaign      LGT RAIN  75  67  76 S15       29.73F
Danville       PTSUNNY   76  63  62 S12       29.74F
Decatur        PTSUNNY   79  65  62 SW17      29.74S HX  81
Effingham      CLOUDY    77  65  65 S9        29.79R
Flora          CLOUDY    80  64  59 S5        29.77S HX  81
Galesburg      PTSUNNY   72  64  76 NW7       29.76R
Jacksonville   CLOUDY    79  66  65 W5        29.74R HX  81
Lacon          CLOUDY    68  65  90 SE3       29.75S
Lawrenceville  MOSUNNY   82  59  45 S17G24    29.79R HX  82
Litchfield     PTSUNNY   77  66  68 S15       29.75S
$$


CITY           SKY/WX    TMP DP  RH WIND       PRES   REMARKS
Lincoln        PTSUNNY   82  67  61 SW3       29.73S HX  84
Macomb         CLOUDY    73  64  73 W5        29.78R
Mattoon        CLOUDY    78  65  63 S10       29.75F HX  80
Mt Carmel AP   SUNNY     82  58  44 S14       29.78S HX  82
Olney-Noble AP CLOUDY    80  62  54 S9        29.78R HX  81
Paris AP       PTSUNNY   78  67  71 S13       29.77F
Peoria         PTSUNNY   71  66  84 CALM      29.75F
Pontiac        CLOUDY    67  67  98 E5        29.76R
Rantoul        CLOUDY    78  68  69 S16       29.72F HX  81
Robinson       CLOUDY    78  61  55 SW14      29.79R
Springfield    CLOUDY    82  67  60 SW3       29.73S HX  84
Taylorville    CLOUDY    78  65  65 S6        29.74S HX  80
$$

...REGIONAL REPORTS...


CITY           SKY/WX    TMP DP  RH WIND       PRES   REMARKS
Chicago O`Hare RAIN      58  54  86 NE14      29.79F FOG
Kankakee       RAIN      65  62  92 SE13G21   29.75F
Moline         CLOUDY    69  61  75 NE7       29.76R
Mount Sterling PTSUNNY   77  68  75 N9        29.74S
Mount Vernon     N/A     76  66  71 W14       29.78R
Pittsfield     CLOUDY    80  67  65 SW5       29.75S HX  82
Quincy         PTSUNNY   76  68  76 N13       29.75R
Rockford       LGT RAIN  62  59  90 E12       29.82R FOG
$$


CITY           SKY/WX    TMP DP  RH WIND       PRES   REMARKS
Burlington     MOSUNNY   74  64  71 CALM      29.76R
Cedar Rapids   CLOUDY    66  61  84 NE5       29.79R
Des Moines     MOSUNNY   82  59  45 MISG      29.77R HX  82
Kirksville     MOSUNNY   78  64  61 N7        29.78R HX  80
Ottumwa        MOSUNNY   76  63  64 N8        29.77R
St Louis       CLOUDY    80  66  62 S14       29.75R HX  82
$$


CITY           SKY/WX    TMP DP  RH WIND       PRES   REMARKS
Terre Haute    CLOUDY    79  63  57 S12       29.78S HX  80
Evansville     MOSUNNY   85  57  38 S16       29.79F HX  84
Indianapolis   CLOUDY    75  60  59 SE10      29.81F
Lafayette      CLOUDY    74  60  61 SE9       29.76F
Madison        LGT RAIN  61  59  93 S3        29.83R
Milwaukee      LGT RAIN  60  55  83 SE5       29.86S
$$






USA.gov is the U.S. government's official web portal to all federal, state and local government web resources and services.